CAPE
2 1 2 1 0 0 0 0 0 0 0 0 0 0 0 0 0 0 0 0 0 0 0 0 0 0 0 0 0 0 0 0 0 0 0 0 0 0 0 0 0 24 73 31 4 26 127
2 2 2 0 0 0 0 0 0 0 0 0 0 0 0 0 0 0 0 0 0 0 0 1 2 1 0 0 0 0 0 0 0 0 0 0 0 0 0 0 0 32 86 53 54 55 12
2 2 3 2 1 0 0 0 0 0 0 0 0 0 0 0 0 0 0 0 0 0 0 0 3 0 0 0 0 0 0 0 0 0 0 0 0 0 0 0 0 6 21 33 29 33 20
2 3 3 1 0 0 0 0 0 0 0 0 0 0 0 0 0 0 0 0 0 0 0 0 1 0 0 0 0 0 0 0 0 0 0 0 0 0 0 0 3 2 14 23 25 43 12
3 2 1 1 0 0 0 0 0 0 0 0 0 0 0 0 0 0 0 0 0 0 0 0 0 0 0 0 0 0 0 0 0 0 0 0 0 0 0 0 1 7 4 21 40 14 0
1 1 1 1 0 0 0 0 0 0 0 0 0 0 0 0 0 0 0 0 0 0 0 0 0 0 0 0 0 0 0 0 0 0 0 0 0 0 0 0 0 0 0 4 8 6 0
2 1 1 1 0 0 0 0 0 0 0 0 0 0 0 0 0 0 0 0 0 0 0 0 0 0 0 0 0 0 0 0 0 0 0 0 0 0 0 0 0 0 0 0 3 4 1
1 0 1 0 0 0 0 0 0 0 0 0 0 0 0 0 0 0 0 0 0 0 0 0 0 0 0 0 0 0 0 0 0 0 0 0 0 0 0 0 0 0 0 0 0 13 4
0 0 0 0 0 0 0 0 0 0 0 0 0 0 0 0 0 0 0 0 0 0 0 0 0 0 0 0 0 0 0 0 0 0 0 0 0 0 0 0 0 0 0 0 0 0 2
0 0 0 0 0 0 0 0 0 0 0 0 0 0 0 0 0 0 0 0 0 0 0 0 0 0 0 0 0 0 0 0 0 0 0 0 0 0 0 0 0 0 0 0 0 2 5
0 0 0 0 0 0 0 0 0 0 0 0 0 0 0 0 0 0 0 0 0 0 0 0 0 0 0 0 0 0 0 0 0 0 0 0 0 0 0 0 0 0 0 0 0 0 0
0 0 0 0 0 0 0 0 0 0 0 0 0 0 0 0 0 0 0 0 0 0 0 0 0 0 0 0 0 0 0 0 0 0 0 0 0 0 0 0 0 0 0 0 0 0 0
0 0 0 0 0 0 0 0 0 0 0 0 0 0 0 0 0 0 0 0 0 0 0 0 0 0 0 0 0 0 0 0 0 0 0 0 0 0 0 0 0 0 0 0 0 0 0
0 0 0 0 0 0 0 0 0 0 0 0 0 0 0 0 0 0 0 0 0 0 0 0 0 0 0 0 0 0 0 0 0 0 0 0 0 0 0 0 0 0 0 0 0 0 0
0 0 0 0 0 0 0 0 0 0 0 0 0 0 0 0 0 0 0 0 0 0 0 0 0 0 0 0 0 0 0 0 0 0 0 0 0 0 0 0 0 0 0 0 0 0 0
0 0 0 0 0 0 0 0 0 0 0 0 0 0 0 0 0 0 0 0 0 0 0 0 0 0 0 0 0 0 0 0 0 0 0 0 0 0 0 0 0 0 0 0 0 0 0
0 0 0 0 0 0 0 0 0 0 0 0 0 0 0 0 0 0 0 0 0 0 0 0 0 0 0 2 0 2 0 0 0 0 0 0 0 0 0 0 0 0 0 0 0 0 0
0 0 0 0 0 0 0 0 0 0 0 0 0 0 0 0 0 0 0 0 0 0 0 23 3 0 12 0 1 13 20 7 0 0 0 0 0 0 0 0 0 0 0 0 0 0 0
0 0 0 0 0 0 0 0 0 0 0 0 0 0 0 0 1 0 0 0 0 0 6 10 24 4 0 0 3 17 3 1 0 0 0 0 0 0 0 0 0 0 0 0 0 0 0
0 0 0 0 0 0 0 0 0 0 0 0 3 1 0 0 0 0 1 1 0 19 50 3 7 42 18 8 0 1 3 0 0 0 0 0 0 0 0 0 0 0 0 0 0 0 0
0 0 0 0 0 0 0 0 0 0 0 0 7 15 4 4 2 12 10 20 13 60 1 36 31 36 31 21 0 0 0 0 0 0 0 0 0 0 0 0 11 0 0 0 0 0 0
0 0 0 0 0 0 0 0 0 1 0 3 11 12 4 6 14 7 7 22 43 33 10 40 65 87 1 15 7 12 1 0 2 0 0 0 0 0 0 0 0 0 0 0 0 0 0
0 0 0 0 0 0 0 0 1 3 6 19 18 2 2 1 3 2 5 7 26 25 38 54 41 11 8 16 14 13 0 0 0 0 0 0 0 0 0 0 0 0 0 0 0 0 0
0 0 0 0 0 0 0 1 3 6 10 28 19 0 1 0 9 9 6 9 12 30 23 11 1 15 37 23 12 3 0 0 0 0 0 0 0 0 0 0 0 0 0 0 1 0 0
0 0 0 0 0 0 0 5 4 7 11 29 38 0 2 0 8 7 7 12 5 48 27 60 97 57 9 21 9 18 6 0 0 0 0 0 0 0 0 0 0 0 0 0 0 0 2
0 0 0 0 0 0 4 1 3 9 10 26 13 0 1 0 0 0 15 12 3 10 24 51 88 87 18 29 23 14 3 1 0 0 0 0 0 0 0 0 0 0 0 0 0 0 7
0 0 0 0 0 6 2 6 8 11 11 19 10 1 1 3 0 1 3 4 10 13 8 17 41 7 29 13 15 21 0 4 0 0 0 0 0 0 0 0 0 0 0 0 0 92 55
0 0 0 0 3 1 5 7 8 11 11 10 5 1 0 0 0 1 2 5 8 12 7 7 3 2 43 31 5 12 26 0 0 0 0 0 0 0 0 0 0 0 0 0 9 0 0
0 0 1 3 2 4 5 6 6 8 6 9 4 0 1 1 0 0 0 1 6 6 8 6 12 5 13 13 16 7 5 2 0 0 0 0 0 0 0 0 0 0 0 0 0 0 0
CIN
0 0 0 0 0 0 0 0 0 0 0 0 0 0 0 0 0 0 0 0 0 0 0 0 0 0 0 0 0 0 0 0 0 0 0 0 0 0 0 0 0 -5 -73 -89 -14 -16 -41
0 0 0 0 0 0 0 0 0 0 0 0 0 0 0 0 0 0 0 0 0 0 0 0 0 0 0 0 0 0 0 0 0 0 0 0 0 0 0 0 0 -6 -18 -21 -24 -3 -4
0 0 0 0 0 0 0 0 0 0 0 0 0 0 0 0 0 0 0 0 0 0 0 0 0 0 0 0 0 0 0 0 0 0 0 0 0 0 0 0 0 -13 -8 -4 -7 -3 -2
0 0 0 0 0 0 0 0 0 0 0 0 0 0 0 0 0 0 0 0 0 0 0 0 0 0 0 0 0 0 0 0 0 0 0 0 0 0 0 0 -3 -2 -8 -4 -4 -2 -2
0 0 0 0 0 0 0 0 0 0 0 0 0 0 0 0 0 0 0 0 0 0 0 0 0 0 0 0 0 0 0 0 0 0 0 0 0 0 0 0 -2 -3 -4 -4 -3 -3 0
0 0 0 0 0 0 0 0 0 0 0 0 0 0 0 0 0 0 0 0 0 0 0 0 0 0 0 0 0 0 0 0 0 0 0 0 0 0 0 0 0 0 0 -3 -4 -4 0
0 0 0 0 0 0 0 0 0 0 0 0 0 0 0 0 0 0 0 0 0 0 0 0 0 0 0 0 0 0 0 0 0 0 0 0 0 0 0 0 0 0 0 0 -3 -17 -14
0 0 0 0 0 0 0 0 0 0 0 0 0 0 0 0 0 0 0 0 0 0 0 0 0 0 0 0 0 0 0 0 0 0 0 0 0 0 0 0 0 0 0 0 0 -8 -17
0 0 0 0 0 0 0 0 0 0 0 0 0 0 0 0 0 0 0 0 0 0 0 0 0 0 0 0 0 0 0 0 0 0 0 0 0 0 0 0 0 0 0 0 0 0 -21
0 0 0 0 0 0 0 0 0 0 0 0 0 0 0 0 0 0 0 0 0 0 0 0 0 0 0 0 0 0 0 0 0 0 0 0 0 0 0 0 0 0 0 0 0 -7 -6
0 0 0 0 0 0 0 0 0 0 0 0 0 0 0 0 0 0 0 0 0 0 0 0 0 0 0 0 0 0 0 0 0 0 0 0 0 0 0 0 0 0 0 0 0 0 0
0 0 0 0 0 0 0 0 0 0 0 0 0 0 0 0 0 0 0 0 0 0 0 0 0 0 0 0 0 0 0 0 0 0 0 0 0 0 0 0 0 0 0 0 0 0 0
0 0 0 0 0 0 0 0 0 0 0 0 0 0 0 0 0 0 0 0 0 0 0 0 0 0 0 0 0 0 0 0 0 0 0 0 0 0 0 0 0 0 0 0 0 0 0
0 0 0 0 0 0 0 0 0 0 0 0 0 0 0 0 0 0 0 0 0 0 0 0 0 0 0 0 0 0 0 0 0 0 0 0 0 0 0 0 0 0 0 0 0 0 0
0 0 0 0 0 0 0 0 0 0 0 0 0 0 0 0 0 0 0 0 0 0 0 0 0 0 0 0 0 0 0 0 0 0 0 0 0 0 0 0 0 0 0 0 0 0 0
0 0 0 0 0 0 0 0 0 0 0 0 0 0 0 0 0 0 0 0 0 0 0 0 0 0 0 0 0 0 0 0 0 0 0 0 0 0 0 0 0 0 0 0 0 0 0
0 0 0 0 0 0 0 0 0 0 0 0 0 0 0 0 0 0 0 0 0 0 0 0 0 0 0 -28 -1 -2 0 0 0 -2 0 0 0 0 0 0 0 0 0 0 0 0 0
0 0 0 0 0 0 0 0 0 0 0 0 0 0 0 0 0 0 -13 0 0 0 -1 -7 -6 0 -5 -1 -1 0 0 -1 0 0 0 0 0 0 -1 0 0 0 0 0 0 0 0
0 0 0 0 0 0 0 0 0 0 0 0 0 0 0 0 -7 0 0 -6 0 0 -24 -36 -8 -7 0 -3 -5 0 0 -1 -2 0 0 0 0 0 0 0 0 0 0 0 0 0 0
0 0 0 0 0 0 0 0 0 0 0 0 -2 -1 -2 0 0 -1 -8 -6 0 -7 -9 -13 -37 -6 -5 -5 -3 -1 0 0 0 0 0 0 0 0 0 0 0 0 0 0 0 0 0
0 0 0 0 0 0 0 0 0 0 0 0 -2 -1 -2 -4 -1 -5 -5 -5 -12 -6 -15 -19 -6 -38 -8 -5 0 0 0 0 0 0 0 0 0 0 0 0 -15 0 0 0 0 0 0
0 0 0 0 0 0 0 0 0 -3 0 -4 0 0 -1 -1 -1 -4 -7 -6 -5 -6 -7 -6 -5 -5 -21 -8 -9 -5 -7 -1 -1 0 0 0 0 0 0 0 0 0 0 0 0 0 0
0 0 0 0 0 0 0 0 0 -2 -4 -1 -1 -1 0 0 -1 -2 -4 -3 -4 -3 -4 -3 -7 -8 -12 -10 -9 -4 0 0 0 0 0 0 0 0 0 0 0 0 0 0 0 0 0
0 0 0 0 0 0 0 0 0 -1 -2 0 -1 0 0 0 -1 -2 -1 -1 -5 -3 -4 -4 -2 -8 -11 -5 -6 -2 -2 0 0 0 0 0 0 0 0 0 0 0 0 0 -5 0 0
0 0 0 0 0 0 0 0 0 -1 -2 0 0 0 0 0 0 -1 -1 0 -6 -1 -5 -5 -6 -21 -58 -5 -5 -3 -4 0 0 0 0 0 0 0 0 0 0 -4 0 0 0 0 -8
0 0 0 0 0 0 0 -2 -1 -1 -3 0 0 0 0 0 0 0 0 0 0 -7 -3 -4 -7 -4 -5 -5 -4 -4 -5 -1 0 0 0 0 0 0 0 0 0 0 0 0 0 0 -5
0 0 0 0 0 0 -1 0 0 0 -1 0 0 0 0 0 0 0 0 0 0 0 -1 -2 -4 -7 -7 -8 -1 -5 0 -10 -3 0 0 0 0 0 0 0 0 0 0 0 0 -77 -127
0 0 0 0 0 -1 0 0 0 0 0 0 0 -1 0 0 0 0 0 0 0 0 0 0 -3 -5 -4 -2 -5 -7 -3 0 0 0 0 0 0 0 0 0 0 0 0 0 -27 0 0
0 0 0 0 0 0 0 0 0 0 0 0 0 0 0 0 0 0 0 0 -1 -2 0 -1 0 -1 -1 -1 0 -1 -1 -5 -11 0 0 0 0 0 0 0 0 0 0 0 0 0 0
Wind_Speed
32 32 33 33 34 34 35 35 36 36 37 38 39 39 40 40 40 40 40 40 37 37 36 33 25 20 17 14 16 15 13 6 10 8 14 22 24 23 35 35 33 34 4 22 14 20 12
33 33 34 35 35 36 36 37 38 38 39 40 41 42 42 42 43 43 42 39 39 37 34 29 18 12 15 17 21 8 7 2 6 14 14 20 18 16 15 35 35 32 5 3 19 12 10
33 34 35 35 36 37 38 38 39 40 41 42 43 44 44 45 45 44 42 41 40 37 34 30 14 7 13 9 20 10 2 3 6 14 18 16 17 13 15 26 36 35 36 35 31 9 10
34 35 36 36 37 38 39 40 40 41 42 43 44 45 46 46 47 45 44 43 41 35 33 27 13 9 22 16 23 29 12 5 4 5 19 10 19 23 16 28 35 38 36 36 14 8 10
35 36 37 38 39 39 40 41 42 43 44 44 45 46 47 47 47 46 46 44 40 30 27 17 12 15 27 15 9 9 7 7 7 7 8 30 15 17 25 18 41 38 42 37 30 8 8
35 36 38 39 39 40 41 42 43 44 45 46 47 47 48 48 46 45 45 46 29 23 21 17 25 22 24 18 12 9 11 8 10 10 12 16 15 18 19 20 27 23 22 25 23 12 11
36 37 39 39 40 41 42 43 44 45 46 47 48 48 49 48 46 45 42 34 39 26 31 35 24 25 28 19 20 10 12 11 12 13 14 15 18 25 27 29 32 34 29 23 26 10 16
37 38 39 40 41 42 43 44 45 46 47 48 49 49 50 49 46 44 38 37 35 36 50 40 46 52 46 41 32 17 12 16 17 19 15 16 31 19 18 28 39 39 42 33 27 17 10
37 38 39 40 42 43 44 45 46 47 48 49 49 51 51 49 45 38 32 38 38 38 44 50 37 37 30 30 31 21 18 20 21 21 21 22 22 21 21 22 22 24 21 35 32 29 13
37 38 39 40 42 43 44 45 46 46 46 46 47 48 48 47 32 38 38 42 40 36 40 41 27 28 28 27 37 27 20 21 23 25 22 26 24 17 20 20 20 25 30 34 37 32 21
36 37 38 39 39 40 41 42 43 45 45 45 45 48 45 32 33 34 42 42 40 30 40 18 14 21 18 29 22 30 23 26 27 23 26 26 25 22 19 25 20 38 18 31 42 42 37
34 35 36 37 36 38 40 41 44 50 52 51 46 39 43 26 17 22 32 28 35 31 37 22 18 30 28 28 39 26 29 30 31 33 33 48 30 34 29 22 27 29 34 31 29 39 48
32 33 34 35 36 37 40 42 47 51 53 44 42 41 31 21 22 33 31 25 34 35 30 30 37 37 37 35 36 43 31 37 38 39 40 39 52 34 34 29 25 29 27 22 22 28 34
32 33 34 34 34 37 39 43 49 51 28 38 48 31 19 16 26 31 26 30 36 34 37 36 39 42 38 35 37 37 40 43 41 42 38 38 39 32 30 33 23 23 23 21 22 37 29
30 32 32 33 35 37 40 45 48 48 41 35 49 32 18 14 31 27 23 31 32 35 36 39 41 36 33 30 31 37 44 44 43 45 45 41 52 31 52 29 33 27 39 22 39 36 41
29 31 32 33 35 35 39 45 48 46 44 41 41 29 15 23 29 21 18 21 26 26 37 38 41 40 42 39 35 32 34 45 42 43 54 55 43 47 30 39 36 54 26 40 47 44 41
28 30 30 31 33 35 36 42 43 45 50 48 33 31 23 29 22 17 18 26 32 32 28 39 42 42 40 34 35 36 31 27 21 35 44 58 54 45 42 42 42 42 44 41 43 43 40
28 28 29 30 31 34 36 42 41 42 50 44 34 32 24 25 26 22 25 29 30 31 27 34 36 38 32 33 36 33 33 30 30 31 40 46 53 56 50 44 39 41 46 34 38 34 44
27 28 29 30 29 33 36 38 35 42 45 39 33 27 17 28 27 31 31 32 29 26 23 31 32 34 35 33 34 31 30 30 33 30 28 29 49 55 52 47 41 50 46 50 38 41 45
27 28 28 28 28 30 32 27 35 37 36 34 26 19 19 19 25 33 35 30 26 22 12 20 31 31 35 36 34 33 31 28 32 33 30 32 41 53 52 49 39 40 47 42 50 40 41
27 27 26 27 26 28 26 23 30 31 31 28 27 25 25 19 18 17 24 24 22 9 24 29 32 27 31 34 33 33 31 32 28 26 26 31 43 44 50 46 31 37 41 42 47 41 42
25 25 24 25 25 27 25 24 28 28 28 22 28 26 20 15 16 14 10 15 14 13 19 33 31 30 32 33 30 33 31 30 26 28 25 27 36 38 49 43 39 39 41 45 44 48 37
23 24 23 24 24 24 23 23 26 26 25 25 21 20 17 12 11 12 11 8 7 5 5 1 31 32 34 33 32 34 35 35 34 35 30 26 28 36 49 39 40 44 37 43 45 41 41
23 21 22 24 21 21 21 22 24 22 19 17 18 18 16 14 8 7 10 7 4 6 4 7 13 30 33 35 36 37 38 38 39 35 33 32 33 34 41 36 46 36 32 34 33 43 40
21 20 22 23 18 16 14 19 21 20 16 13 14 14 15 14 7 6 6 7 7 4 2 4 14 17 10 32 35 36 37 37 42 39 36 32 33 35 36 35 33 33 33 37 32 29 28
19 21 21 18 15 13 12 17 20 19 14 11 11 8 11 14 12 5 8 6 6 8 5 6 3 10 22 25 27 37 38 33 38 44 36 35 34 35 33 37 39 30 31 20 30 37 27
19 20 18 15 13 12 14 14 16 17 11 10 12 5 9 10 6 3 4 5 6 6 6 3 2 10 16 18 21 26 34 28 33 38 41 40 38 42 40 37 30 18 14 15 32 27 16
18 18 15 14 13 12 11 13 16 15 8 9 11 7 6 8 7 2 4 4 4 3 7 2 7 10 13 15 15 17 23 24 30 27 28 38 42 44 43 46 42 10 18 18 16 14 14
18 16 15 13 12 13 10 15 17 13 8 10 12 8 6 9 7 3 5 8 11 12 7 7 7 5 12 11 16 18 24 23 28 33 20 35 32 38 41 49 37 26 23 17 19 19 19
Wind_Direction
360 357 355 353 350 348 346 344 342 339 336 332 328 325 321 317 313 309 306 304 300 300 300 305 317 316 314 309 270 302 338 53 156 188 179 177 177 177 194 208 209 221 169 176 200 205 56
359 357 356 354 352 349 347 344 342 339 336 333 329 325 322 319 315 312 308 303 301 300 304 316 331 332 310 298 274 203 332 16 155 172 188 181 183 185 196 203 210 215 186 176 190 161 320
358 357 355 353 351 348 347 344 341 339 336 334 331 328 324 321 317 313 309 308 305 305 303 309 327 328 301 273 294 307 261 272 166 169 178 189 190 204 192 191 215 228 234 237 245 292 299
359 358 356 354 352 350 348 345 342 339 337 334 332 329 326 322 318 314 311 310 307 310 309 311 317 315 298 314 202 238 288 232 220 199 175 192 247 256 198 258 252 221 216 231 270 262 285
358 357 356 354 353 350 347 345 342 340 338 335 333 330 326 323 319 314 311 305 308 313 316 320 320 304 294 313 244 235 229 210 233 235 196 205 244 232 255 244 239 215 230 214 256 211 255
355 355 357 357 356 354 351 349 346 342 339 337 335 332 327 324 320 315 314 305 323 318 315 309 295 297 291 293 296 232 201 227 202 239 245 246 243 234 217 207 196 255 257 261 255 193 193
354 355 358 359 359 358 355 351 347 344 341 338 336 333 329 326 322 318 326 338 323 313 305 285 288 282 288 299 295 271 212 222 211 215 205 217 235 200 196 195 227 252 256 256 257 199 191
358 360 1 359 357 357 355 351 347 344 342 340 338 335 331 327 324 320 326 334 328 311 290 286 276 266 267 264 276 269 211 215 211 207 214 225 200 205 225 246 244 246 243 253 258 209 229
5 6 3 359 357 356 357 355 352 349 348 347 344 338 335 328 323 332 337 330 324 317 295 282 279 271 260 260 262 257 213 206 217 217 214 213 248 243 240 239 231 211 215 251 254 254 231
8 5 5 4 2 359 359 359 357 355 353 353 350 347 344 342 343 338 333 331 323 318 297 290 281 287 252 253 255 252 223 216 235 225 217 241 234 223 229 216 206 204 197 252 252 256 246
10 8 7 7 7 7 6 5 5 2 357 354 352 345 330 350 345 344 337 334 328 314 286 324 296 302 284 236 283 235 231 223 227 235 216 220 241 231 225 198 203 204 238 249 247 252 258
13 10 11 9 10 8 6 6 3 355 345 341 321 311 327 5 5 359 356 357 327 297 278 306 312 303 275 253 250 272 229 229 239 244 245 239 244 245 246 247 246 248 247 250 251 252 239
16 14 11 10 9 8 5 3 355 346 341 320 314 307 351 360 5 352 354 2 317 290 291 296 295 294 281 268 254 249 233 229 226 231 238 240 238 242 243 247 240 241 241 242 220 206 207
15 13 11 11 11 8 6 0 345 342 358 317 317 306 355 357 354 350 354 342 308 306 292 296 292 286 272 273 267 248 243 236 232 236 241 239 239 222 235 237 233 219 220 232 199 199 203
15 13 13 13 11 8 5 354 349 355 2 358 349 355 347 11 353 351 353 333 326 321 315 291 289 274 278 286 277 263 243 239 236 233 235 238 240 238 233 239 236 233 197 213 242 249 244
14 13 12 12 10 9 5 352 352 0 1 359 355 356 349 2 351 352 348 340 335 347 323 295 276 272 270 274 269 274 255 243 242 238 237 238 246 238 233 239 240 230 236 236 235 240 243
12 10 10 10 8 8 7 359 0 1 358 358 4 358 4 356 354 347 338 341 335 334 336 293 274 269 269 271 264 264 249 259 269 253 238 236 239 239 236 230 232 231 233 236 238 235 236
7 7 7 7 7 5 4 358 3 4 358 3 0 353 357 7 352 355 344 343 340 341 338 301 281 263 271 268 262 257 254 253 275 265 245 236 235 236 238 236 234 235 234 235 239 239 234
4 4 4 5 5 3 2 1 7 4 5 6 7 2 26 5 354 345 340 338 344 352 342 306 284 275 269 265 255 251 263 264 270 265 251 243 231 230 234 236 228 230 231 232 239 238 232
1 1 2 3 3 3 2 7 5 6 9 12 16 18 22 24 7 345 340 345 350 359 16 329 278 282 264 259 255 251 261 266 270 268 260 245 234 231 229 231 236 226 231 232 230 235 235
358 359 359 360 2 2 3 6 6 8 10 16 18 17 16 16 16 7 357 353 360 5 342 270 290 282 267 257 257 252 261 271 266 267 266 244 234 234 234 234 243 233 233 233 231 235 233
357 357 357 358 359 0 2 4 5 8 11 17 12 16 18 3 11 13 10 16 11 12 359 302 288 278 265 259 261 255 259 261 251 259 261 257 232 236 234 239 244 244 231 232 233 232 236
355 355 355 356 357 359 360 2 4 7 14 14 20 21 23 21 13 20 28 14 356 347 7 219 277 281 270 267 269 258 256 257 254 254 253 248 244 237 230 236 236 240 234 231 231 231 233
355 354 354 354 353 355 356 359 1 5 11 12 14 19 21 14 11 14 5 353 341 13 278 245 234 269 280 281 277 262 253 252 249 248 247 244 244 240 231 237 233 239 243 239 240 232 233
352 349 351 351 348 348 345 357 360 2 6 6 14 20 21 11 8 343 11 355 340 301 254 243 239 269 211 276 262 255 250 246 240 242 241 244 242 238 230 233 238 240 241 232 237 234 240
348 349 349 346 339 334 323 352 357 0 2 3 10 28 29 17 21 33 38 20 357 36 44 75 125 220 261 272 267 244 237 247 238 235 240 241 241 236 236 234 232 247 246 242 239 236 255
346 347 343 335 321 320 296 349 356 360 1 10 14 50 38 18 13 357 27 55 68 53 52 101 178 234 220 274 272 246 239 259 239 233 231 233 235 233 233 232 238 260 284 246 230 235 267
342 342 336 335 325 309 305 354 359 360 359 13 20 58 60 28 359 9 239 234 217 156 89 96 103 112 217 275 276 268 253 257 244 250 239 231 232 233 233 229 228 307 262 241 247 260 263
343 340 339 332 329 294 339 359 360 2 5 21 24 59 106 53 36 319 251 228 216 211 203 133 162 162 146 199 280 278 265 267 258 238 254 239 244 239 237 234 243 265 263 272 272 263 263